sat.trackr.live / text

‹ back to catalog

STARLINK-31082

NORAD 58606 · 2023-200T

PAYLOAD ACTIVE UNKNOWN

§ Identity

Operator
Country
US
Launch date
2023-12-19
Launch site
AFETR
Launch vehicle
Mass (kg)
RCS (m²)

Purposes: comms

External: N2YO · Heavens-Above · Gunter

§ Orbital elements

Epoch: 2026-05-25T04:53:00.562272Z

Period
94.27 min
Inclination
43.0035°
Eccentricity
0.0001287
Mean motion
15.27566344 rev/d
Perigee alt
482.2 km
Apogee alt
484.0 km
Semi-major
6,861.2 km
B*
1.0268e-4
RAAN
96.6544°
Arg perigee
263.5373°
Mean anomaly
96.5332°
Rev number
13,531

§ Raw data

STARLINK-310821 58606U 23200T   26145.20347873  .00002563  00000+0  10268-3 0  99992 58606  43.0035  96.6544 0001287 263.5373  96.5332 15.27566344135317

JSON: /api/v1/satellites/58606 · /tle

For live sub-satellite position, see the globe view (requires WebGL).

§ Visibility from observer

Set your observer location to see the next 7 days of passes ≥ 10°. The values pass through the URL so the page stays shareable.

No JS? Fill the form by hand. The geolocation button needs JavaScript.